Domov               UVHVVR             MKGP            O straneh              
ZDRAVSTVENO VARSTVO RASTLIN
  MREŽA AGROMET. POSTAJ
 ► PROGNOSTIČNA OBVESTILA
AGROMETEOROLOŠKI PODATKI -
ARSO
OBVLADOVANJE TVEGANJ ZARADI
NEUGODNIH VREMENSKIH RAZMER
  ► NARAVNE NESREČE
  ► SUŠA/MOČA
  ► NAMAKANJE
  ► ŽLED (gozdarstvo)
KARTOGRAFSKI PRIKAZI
SPLETNE POVEZAVE
PROJEKTI IN PUBLIKACIJE

AGROMETEOROLOŠKA MREŽA: VREMENSKE POSTAJE IN FENOLOŠKA OPAZOVANJA

Pregled podatkov za lokacijo Zbigovci, meteorološka postaja 25164

Pregled senzorjev na lokaciji

ID Ime Zadnja
vrednost
Datum
zadnje
spremembe
Tip
senzorja
1930 Padavine (mm) 0 mm 14.12.2017 07:00 Generic 0.2 mm
1931 Omočenost lista (U) 0 U 14.12.2017 07:00 A730WET
1932 Relativna vlaga 2 m (% RH) 70,13 % RH 14.12.2017 07:00 Generic 0 - 100 %
1933 Temperatura 2 m (°C) 4,93 °C 14.12.2017 07:00 Generic -40 - +60 °C

Pregled podatkov zadnjih 24 ur

Zap.
št.
Datum in čas Zbigovci
Omočenost
lista
Padavine Relativna
vlaga
2
m
Temperatura
2
m
0 14.12.2017 07:00 0 0 70,13 4,93
1 14.12.2017 06:30 0 0 71,11 4,74
2 14.12.2017 06:00 0 0 72,82 4,62
3 14.12.2017 05:30 0 0 73,04 4,44
4 14.12.2017 05:00 0 0 73,65 4,22
5 14.12.2017 04:30 0 0 74,99 4
6 14.12.2017 04:00 0 0 75,31 3,91
7 14.12.2017 03:30 1 0 76,24 3,35
8 14.12.2017 03:00 4 0 80,07 2,49
9 14.12.2017 02:30 4 0 82,64 1,76
10 14.12.2017 02:00 3 0 85,18 1,03
11 14.12.2017 01:30 3 0 88,18 0,59
12 14.12.2017 01:00 3 0 87,81 0,68
13 14.12.2017 00:30 3 0 86,62 0,61
14 14.12.2017 00:00 3 0 87,89 0,51
15 13.12.2017 23:30 4 0 87,03 0,61
16 13.12.2017 23:00 4 0 85,96 0,76
17 13.12.2017 22:30 3 0 85,47 0,85
18 13.12.2017 22:00 3 0 84,74 0,81
19 13.12.2017 21:30 3 0 86,57 0,68
20 13.12.2017 21:00 3 0 85,93 0,85
21 13.12.2017 20:30 3 0 86,18 0,85
22 13.12.2017 20:00 3 0 85,96 1
23 13.12.2017 19:30 3 0 84,44 0,98
24 13.12.2017 19:00 2 0 86,64 0,68
25 13.12.2017 18:30 2 0 87,84 0,73
26 13.12.2017 18:00 2 0 86,94 0,88
27 13.12.2017 17:30 2 0 86,42 1,22
28 13.12.2017 17:00 2 0 86,35 1,49
29 13.12.2017 16:30 1 0 85,64 1,9
30 13.12.2017 16:00 1 0 86,91 2,1
31 13.12.2017 15:30 0 0 85,89 2,59
32 13.12.2017 15:00 0 0 86,15 2,52
33 13.12.2017 14:30 0,2 86,98 2,56
34 13.12.2017 14:00 0 0 85,93 2,47
35 13.12.2017 13:30 0,2 88,21 2,3
36 13.12.2017 13:00 0,2 88,06 2,22
37 13.12.2017 12:30 1 0,4 89,87 1,78
38 13.12.2017 12:00 1 0,8 90,7 1,59
39 13.12.2017 11:30 4 0,8 92,48 1,27
40 13.12.2017 11:00 3 0,8 92,45 1,2
41 13.12.2017 10:30 1 0,4 92,8 0,88
42 13.12.2017 10:00 3 0 95,51 0,34
43 13.12.2017 09:30 4 0 97,58 0,17
44 13.12.2017 09:00 3 0 99,93 0,07
45 13.12.2017 08:30 3 0 99,93 -0,02
46 13.12.2017 08:00 2 0 99,93 -0,17
47 13.12.2017 07:30 2 0 99,93 -0,17
© 2011 Ministrstvo za kmetijstvo, gozdarstvo in prehrano. Vse pravice pridržane.